Regional Weather Roundup
Issued by NWS Sterling, VA

Home | Current Version | Previous Version | Text Only | Print | Product List | Glossary Off
Versions: 1 2 3 4 5 6 7 8 9 10 11 12 13 14 15 16 17 18 19 20 21 22 23 24 25 26 27 28 29 30 31 32 33 34 35 36 37 38 39 40 41 42 43 44 45 46 47 48 49 50

000
ASUS41 KLWX 222210
RWRLWX

REGIONAL WEATHER ROUNDUP
NATIONAL WEATHER SERVICE BALTIMORE MD/WASHINGTON DC
600 PM EDT TUE JUL 22 2014

Note: "FAIR" indicates few or no clouds below 12,000 feet
with no significant weather and/or obstructions to visibility.
 TC=TEMPERATURE CELSIUS

 * =Non NWS site. Station does not report precipitation (e.g. rain,
    snow, etc.), thunder, or fog.

DCZ001-MDZ009-015-VAZ040>042-051-053>054-222300-
WASHINGTON METRO
  /KDAA//-FT BELVOIR

CITY           SKY/WX    TMP DP  RH WIND       PRES   REMARKS
WASHINGTON NAT CLOUDY    86  68  54 S12       30.09F
DULLES         PTSUNNY   83  69  62 S9        30.09F
ANDREWS AFB    MOSUNNY   83  70  64 S10       30.10F
QUANTICO       MOSUNNY   83  70  64 S10       30.10F
COLLEGE PARK*  PTSUNNY   86  70  58 SE6       30.09F HX  90
LEESBURG*      SUNNY     86  72  62 S9        30.10S HX  92
MANASSAS*      SUNNY     84  73  70 MISG      30.10S HX  91
GAITHERSBURG*  MOSUNNY   82  68  61 SE8       30.13F

$$

MDZ006>007-011-014-222300-
BALTIMORE METRO

CITY           SKY/WX    TMP DP  RH WIND       PRES   REMARKS
BWI AIRPORT    PTSUNNY   83  65  54 S8        30.09F
MD SCIENCE CTR   N/A     85  66  53 MISG      30.09F
MARTIN STATE   MOSUNNY   84  72  65 S12       30.11F
ANNAPOLIS      MOSUNNY   83  64  52 S13       30.10F
FORT MEADE*    MOSUNNY   81  68  65 S6        30.11F

$$

MDZ012-015-019>023-222300-
MARYLAND EASTERN SHORE

CITY           SKY/WX    TMP DP  RH WIND       PRES   REMARKS
OCEAN CITY     MOSUNNY   77  69  76 SE6       30.14F
SALISBURY      NOT AVBL
BAY BRIDGE AP*   N/A     82  64  54 S8        30.10F
CAMBRIDGE*     MOSUNNY   84  63  48 S8        30.11F

$$

MDZ017>025-222300-
SOUTHERN MARYLAND

CITY           SKY/WX    TMP DP  RH WIND       PRES   REMARKS
PATUXENT RIVER PTSUNNY   81  65  58 SE10      30.11F
ST INIGOES     SUNNY     82  65  56 SE7       30.11F
LEONARDTOWN*   SUNNY     81  64  57 SE7       30.13F

$$

MDZ003>005-222300-
NORTH CENTRAL MARYLAND

CITY           SKY/WX    TMP DP  RH WIND       PRES   REMARKS
FREDERICK*     MOSUNNY   86  72  62 S10       30.10F HX  92
HAGERSTOWN APT MOSUNNY   85  68  56 S10       30.08F
WESTMINSTER*   SUNNY     86  79  79 S8        30.10F HX  99

$$

MDZ501>502-222300-
WESTERN MARYLAND

CITY           SKY/WX    TMP DP  RH WIND       PRES   REMARKS
OAKLAND*       PTSUNNY   77  68  73 S3        30.19F
CUMBERLAND*    PTSUNNY   91  68  46 E5        30.10S HX  95

$$

VAZ025>031-222300-
SHENANDOAH VALLEY

CITY           SKY/WX    TMP DP  RH WIND       PRES   REMARKS
WINCHESTER*    SUNNY     84  70  61 SE13      30.09F
STAUNTON*      MOSUNNY   84  68  57 SE9       30.13S

$$

WVZ021-048>050-054>055-222300-
EASTERN WEST VIRGINIA PANHANDLE

CITY           SKY/WX    TMP DP  RH WIND       PRES   REMARKS
MARTINSBURG    MOSUNNY   85  68  56 S10       30.08F
PETERSBURG*    SUNNY     86  62  43 S9        30.07S

$$

VAZ036>039-050-222300-
CENTRAL FOOTHILLS

CITY           SKY/WX    TMP DP  RH WIND       PRES   REMARKS
CHARLOTTESVILL MOSUNNY   85  69  58 SE6       30.10S
ORANGE*        MOSUNNY   84  70  61 SE6       30.11S

$$

VAZ055>057-222300-
NORTH AND CENTRAL PIEDMONT

CITY           SKY/WX    TMP DP  RH WIND       PRES   REMARKS
FREDERICKSBRG* MOSUNNY   86  70  58 SE7       30.09S HX  91
STAFFORD*      MOSUNNY   84  70  63 SE7       30.14S

$$

NCZ024-NYZ072-PAZ021-071-VAZ022-071-222300-
OTHER REGIONAL OBSERVATIONS

CITY           SKY/WX    TMP DP  RH WIND       PRES   REMARKS
NEW YORK CITY  MOSUNNY   81  66  60 CALM      30.09S
PHILADELPHIA   MOSUNNY   86  63  45 S12       30.09S
PITTSBURGH     MOSUNNY   87  66  49 W9        30.06F
ROANOKE        MOSUNNY   85  66  53 S9G16     30.14S
RICHMOND       PTSUNNY   87  68  52 SE8       30.10F HX  90
RALEIGH        PTSUNNY   85  71  63 VRB3      30.10S HX  90

$$

ANZ530>537-222300-
MARINE OBSERVATIONS

STATION/POSITION TIME  TEMP    WIND        PRES
                       AIR SEA DIR/SP/G
                 (UTC) (F)     (DEG/KT/KT) (MB)
THOMAS PT LIGHT  2200   81 81  180/ 16/ 17 1019.6F
BALT KEY BRIDGE  2200          140/ 13/ 15 1018.6F
COVE POINT       2200   79     190/ 12/ 12 1019.7F
LEWISETTA        2200   81 83  130/  8/ 11 1019.5F
SOLOMONS ISLAND  2200      83                N/A
PINEY POINT      2200          150/ 14/ 15   N/A

$$



USA.gov is the U.S. government's official web portal to all federal, state and local government web resources and services.